TOM84W EGCC-LSGG

Flight info

Callsign TOM84W
Flight time N/A
Altitude 35000
Route SANBA1Y/23L SANBA N859 HON UL612 VEULE DCT PEKIM DCT PILUL DCT PIMUP/N0442F270 DCT PIXIS DCT PIBAT/N0415F230 DCT LUSAR
Aircraft B738/M-SDE2E3FGHIRWXY/LB1

Departure

Time N/A
Airport Manchester Airport (EGCC)

Arrival

Time 2026-05-04 19:54
Airport Geneva International Airport (LSGG)
Time Latitude Longitude Altitude Speed Heading
2026-05-04 19:01 49.75699 0.76484 34973 ft 444 kts 139°
2026-05-04 19:01 49.73463 0.79776 34976 ft 444 kts 140°
2026-05-04 19:01 49.68968 0.86325 34965 ft 444 kts 140°
2026-05-04 19:02 49.64461 0.92838 34947 ft 444 kts 140°
2026-05-04 19:02 49.59951 0.99330 34961 ft 444 kts 140°
2026-05-04 19:03 49.55431 1.05818 34968 ft 444 kts 140°
2026-05-04 19:03 49.50906 1.12299 34968 ft 444 kts 140°
2026-05-04 19:04 49.46372 1.18777 34965 ft 445 kts 140°
2026-05-04 19:04 49.41857 1.25209 34965 ft 445 kts 140°
2026-05-04 19:05 49.37283 1.31709 34968 ft 445 kts 140°
2026-05-04 19:05 49.32753 1.38128 34976 ft 450 kts 140°
2026-05-04 19:06 49.28116 1.44679 34958 ft 452 kts 141°
2026-05-04 19:06 49.23519 1.51165 34941 ft 445 kts 141°
2026-05-04 19:07 49.18960 1.57579 34954 ft 445 kts 141°
2026-05-04 19:07 49.14397 1.63976 34940 ft 446 kts 141°
2026-05-04 19:08 49.09849 1.70336 34940 ft 446 kts 141°
2026-05-04 19:08 49.05267 1.76729 34918 ft 446 kts 142°
2026-05-04 19:09 49.00677 1.83114 34930 ft 446 kts 142°
2026-05-04 19:09 48.96083 1.89490 34933 ft 447 kts 142°
2026-05-04 19:10 48.93006 1.93751 34939 ft 447 kts 142°
2026-05-04 19:10 48.87644 2.01159 34934 ft 448 kts 142°
2026-05-04 19:11 48.83025 2.07522 34939 ft 449 kts 142°
2026-05-04 19:11 48.78392 2.13887 34941 ft 449 kts 142°
2026-05-04 19:12 48.71439 2.23411 34966 ft 449 kts 142°
2026-05-04 19:13 48.66796 2.29749 34939 ft 449 kts 142°
2026-05-04 19:13 48.62151 2.36074 34936 ft 449 kts 142°
2026-05-04 19:14 48.57571 2.42293 34933 ft 448 kts 142°
2026-05-04 19:14 48.52919 2.48542 34938 ft 447 kts 144°
2026-05-04 19:15 48.48211 2.54544 34935 ft 445 kts 144°
2026-05-04 19:15 48.43466 2.60527 34913 ft 445 kts 144°
2026-05-04 19:16 48.38732 2.66517 34923 ft 444 kts 144°
2026-05-04 19:16 48.34000 2.72472 34929 ft 443 kts 145°
2026-05-04 19:17 48.29284 2.78420 34927 ft 442 kts 145°
2026-05-04 19:17 48.24580 2.84371 34930 ft 442 kts 144°
2026-05-04 19:18 48.19872 2.90297 34933 ft 442 kts 145°
2026-05-04 19:18 48.15165 2.96200 34927 ft 441 kts 145°
2026-05-04 19:19 48.10452 3.02098 34925 ft 441 kts 145°
2026-05-04 19:19 48.05333 3.06845 34926 ft 433 kts 161°
2026-05-04 19:20 47.99769 3.10342 34923 ft 435 kts 161°
2026-05-04 19:20 47.94204 3.13931 34914 ft 439 kts 155°
2026-05-04 19:21 47.89349 3.19599 34922 ft 451 kts 136°
2026-05-04 19:21 47.85192 3.26625 34922 ft 452 kts 135°
2026-05-04 19:22 47.81044 3.33682 34925 ft 452 kts 136°
2026-05-04 19:22 47.76871 3.40695 34920 ft 452 kts 136°
2026-05-04 19:22 47.74783 3.44179 34776 ft 449 kts 136°
2026-05-04 19:23 47.72729 3.47603 34513 ft 438 kts 136°
2026-05-04 19:23 47.70722 3.50941 34268 ft 429 kts 137°
2026-05-04 19:23 47.68751 3.54214 34022 ft 420 kts 137°
2026-05-04 19:23 47.66816 3.57419 33767 ft 414 kts 137°
2026-05-04 19:24 47.64915 3.60558 33492 ft 415 kts 137°
2026-05-04 19:24 47.62984 3.63740 33213 ft 415 kts 137°
2026-05-04 19:24 47.61049 3.66927 32968 ft 416 kts 137°
2026-05-04 19:24 47.59111 3.70116 32703 ft 417 kts 137°
2026-05-04 19:25 47.57165 3.73319 32438 ft 418 kts 137°
2026-05-04 19:25 47.55216 3.76522 32178 ft 419 kts 137°
2026-05-04 19:25 47.53267 3.79722 31924 ft 420 kts 136°
2026-05-04 19:25 47.51306 3.82939 31664 ft 421 kts 136°
2026-05-04 19:26 47.49340 3.86160 31415 ft 422 kts 136°
2026-05-04 19:26 47.47370 3.89384 31158 ft 422 kts 136°
2026-05-04 19:26 47.45402 3.92602 30907 ft 422 kts 136°
2026-05-04 19:26 47.43432 3.95820 30661 ft 423 kts 136°
2026-05-04 19:27 47.41455 3.99045 30423 ft 423 kts 136°
2026-05-04 19:27 47.39479 4.02263 30174 ft 423 kts 136°
2026-05-04 19:27 47.37505 4.05475 29923 ft 423 kts 136°
2026-05-04 19:27 47.35529 4.08687 29638 ft 423 kts 136°
2026-05-04 19:28 47.33553 4.11894 29358 ft 423 kts 136°
2026-05-04 19:28 47.31595 4.15068 29059 ft 423 kts 136°
2026-05-04 19:28 47.29612 4.18278 28791 ft 424 kts 136°
2026-05-04 19:28 47.27625 4.21491 28519 ft 425 kts 136°
2026-05-04 19:29 47.25634 4.24706 28250 ft 425 kts 136°
2026-05-04 19:29 47.23633 4.27934 27983 ft 427 kts 136°
2026-05-04 19:29 47.21632 4.31158 27728 ft 427 kts 136°
2026-05-04 19:29 47.19625 4.34389 27464 ft 428 kts 136°
2026-05-04 19:30 47.17614 4.37622 27202 ft 429 kts 136°
2026-05-04 19:30 47.15597 4.40860 26944 ft 430 kts 136°
2026-05-04 19:30 47.13576 4.44101 26693 ft 430 kts 136°
2026-05-04 19:30 47.11555 4.47338 26446 ft 431 kts 136°
2026-05-04 19:31 47.09525 4.50586 26190 ft 431 kts 136°
2026-05-04 19:31 47.07494 4.53833 25929 ft 431 kts 136°
2026-05-04 19:31 47.05461 4.57076 25689 ft 432 kts 136°
2026-05-04 19:31 47.03427 4.60319 25449 ft 432 kts 136°
2026-05-04 19:32 47.01386 4.63568 25200 ft 433 kts 136°
2026-05-04 19:32 46.99346 4.66812 24962 ft 433 kts 136°
2026-05-04 19:32 46.97306 4.70052 24724 ft 434 kts 136°
2026-05-04 19:32 46.95258 4.73301 24485 ft 434 kts 136°
2026-05-04 19:33 46.93209 4.76548 24258 ft 434 kts 136°
2026-05-04 19:33 46.91157 4.79795 24021 ft 435 kts 136°
2026-05-04 19:33 46.89100 4.83047 23795 ft 435 kts 136°
2026-05-04 19:33 46.87071 4.86249 23574 ft 435 kts 136°
2026-05-04 19:34 46.85010 4.89500 23291 ft 436 kts 136°
2026-05-04 19:34 46.82943 4.92755 23049 ft 437 kts 136°
2026-05-04 19:34 46.80878 4.96004 22991 ft 438 kts 136°
2026-05-04 19:34 46.78801 4.99271 22575 ft 438 kts 136°
2026-05-04 19:35 46.76750 5.02496 22050 ft 428 kts 136°
2026-05-04 19:35 46.74734 5.05660 21824 ft 424 kts 136°
2026-05-04 19:35 46.72728 5.08801 21564 ft 423 kts 136°
2026-05-04 19:35 46.70721 5.11935 21303 ft 422 kts 136°
2026-05-04 19:36 46.68785 5.15161 21039 ft 424 kts 130°
2026-05-04 19:36 46.67241 5.18842 20782 ft 429 kts 120°
2026-05-04 19:36 46.66100 5.22868 20540 ft 432 kts 111°
2026-05-04 19:36 46.65389 5.27134 20280 ft 434 kts 105°
2026-05-04 19:37 46.64782 5.31440 20030 ft 434 kts 105°
2026-05-04 19:37 46.64181 5.35691 19794 ft 434 kts 105°
2026-05-04 19:37 46.63552 5.39980 19552 ft 433 kts 105°
2026-05-04 19:37 46.62904 5.44264 19313 ft 432 kts 106°
2026-05-04 19:38 46.62249 5.48530 19073 ft 432 kts 106°
2026-05-04 19:38 46.61589 5.52777 18838 ft 431 kts 106°
2026-05-04 19:38 46.60925 5.57029 18607 ft 429 kts 106°
2026-05-04 19:38 46.60267 5.61239 18045 ft 426 kts 105°
2026-05-04 19:39 46.59613 5.65420 17397 ft 420 kts 105°
2026-05-04 19:39 46.58970 5.69532 16747 ft 415 kts 105°
2026-05-04 19:39 46.58330 5.73602 16111 ft 410 kts 105°
2026-05-04 19:39 46.57635 5.77595 15478 ft 404 kts 111°
2026-05-04 19:40 46.56364 5.81172 14865 ft 396 kts 128°
2026-05-04 19:40 46.54551 5.84072 14228 ft 390 kts 142°
2026-05-04 19:40 46.52363 5.86350 13587 ft 385 kts 148°
2026-05-04 19:40 46.50144 5.88498 12927 ft 382 kts 148°
2026-05-04 19:41 46.47948 5.90649 12310 ft 379 kts 147°
2026-05-04 19:41 46.45808 5.92781 12023 ft 366 kts 147°
2026-05-04 19:41 46.43757 5.94838 11857 ft 352 kts 147°
2026-05-04 19:41 46.41782 5.96817 11741 ft 338 kts 147°
2026-05-04 19:42 46.39883 5.98719 11616 ft 326 kts 148°
2026-05-04 19:42 46.38158 6.00753 11480 ft 318 kts 131°
2026-05-04 19:42 46.37131 6.03524 11372 ft 311 kts 108°
2026-05-04 19:42 46.36913 6.06610 11152 ft 310 kts 86°
2026-05-04 19:43 46.37468 6.09625 10832 ft 311 kts 66°
2026-05-04 19:43 46.38679 6.12215 10537 ft 311 kts 49°
2026-05-04 19:43 46.40191 6.14455 10240 ft 309 kts 45°
2026-05-04 19:43 46.41714 6.16600 10095 ft 302 kts 45°
2026-05-04 19:44 46.43195 6.18720 9868 ft 298 kts 45°
2026-05-04 19:44 46.44659 6.20840 9546 ft 297 kts 45°
2026-05-04 19:44 46.46109 6.22968 9237 ft 296 kts 46°
2026-05-04 19:44 46.47533 6.25074 8952 ft 295 kts 46°
2026-05-04 19:45 46.48983 6.27221 8642 ft 293 kts 46°
2026-05-04 19:45 46.50388 6.29300 8574 ft 284 kts 46°
2026-05-04 19:45 46.51736 6.31297 8442 ft 277 kts 46°
2026-05-04 19:45 46.53068 6.33272 8325 ft 270 kts 47°
2026-05-04 19:46 46.54349 6.35218 8183 ft 263 kts 53°
2026-05-04 19:46 46.55059 6.37566 8059 ft 251 kts 86°
2026-05-04 19:46 46.54868 6.39994 7843 ft 239 kts 116°
2026-05-04 19:46 46.53995 6.41981 7612 ft 230 kts 140°
2026-05-04 19:47 46.52686 6.43212 7377 ft 223 kts 164°
2026-05-04 19:47 46.51179 6.43543 7139 ft 218 kts 185°
2026-05-04 19:47 46.49714 6.43095 6895 ft 215 kts 205°
2026-05-04 19:47 46.48448 6.41956 6692 ft 214 kts 214°
2026-05-04 19:48 46.47229 6.40713 6451 ft 215 kts 214°
2026-05-04 19:48 46.46011 6.39465 6185 ft 214 kts 214°
2026-05-04 19:48 46.44801 6.38224 6008 ft 210 kts 214°
2026-05-04 19:48 46.43625 6.37017 5908 ft 204 kts 214°
2026-05-04 19:49 46.42492 6.35854 5707 ft 202 kts 214°
2026-05-04 19:49 46.41341 6.34677 5486 ft 203 kts 214°
2026-05-04 19:49 46.40190 6.33500 5279 ft 202 kts 214°
2026-05-04 19:49 46.39043 6.32327 5052 ft 203 kts 214°
2026-05-04 19:50 46.37886 6.31145 4849 ft 205 kts 214°
2026-05-04 19:50 46.36711 6.29931 4589 ft 208 kts 218°
2026-05-04 19:50 46.35652 6.28479 4306 ft 211 kts 225°
2026-05-04 19:50 46.34647 6.26927 4071 ft 211 kts 227°
2026-05-04 19:51 46.33653 6.25376 3828 ft 211 kts 225°
2026-05-04 19:51 46.32647 6.23883 3563 ft 203 kts 225°
2026-05-04 19:51 46.31679 6.22463 3300 ft 194 kts 225°
2026-05-04 19:51 46.30755 6.21107 3040 ft 186 kts 225°
2026-05-04 19:52 46.29882 6.19827 2780 ft 171 kts 225°
2026-05-04 19:52 46.29101 6.18680 2578 ft 150 kts 226°
2026-05-04 19:52 46.28387 6.17631 2345 ft 144 kts 226°
2026-05-04 19:52 46.27686 6.16600 2142 ft 144 kts 226°
2026-05-04 19:53 46.26980 6.15565 1948 ft 145 kts 226°
2026-05-04 19:53 46.26276 6.14531 1783 ft 142 kts 226°
2026-05-04 19:53 46.25575 6.13500 1589 ft 145 kts 226°
2026-05-04 19:53 46.24887 6.12474 1416 ft 143 kts 226°
2026-05-04 19:54 46.24250 6.11544 1398 ft 115 kts 224°
2026-05-04 19:54 46.23779 6.10856 1395 ft 81 kts 226°
2026-05-04 19:54 46.23468 6.10401 1404 ft 59 kts 226°
2026-05-04 19:54 46.23214 6.10027 1402 ft 37 kts 225°
2026-05-04 19:55 46.23045 6.09782 1395 ft 23 kts 226°
2026-05-04 19:55 46.22962 6.09738 1397 ft 5 kts 136°
2026-05-04 19:55 46.22944 6.09799 1399 ft 10 kts 109°
2026-05-04 19:55 46.22925 6.09923 1402 ft 14 kts 74°
2026-05-04 19:56 46.22989 6.10023 1393 ft 13 kts 43°
2026-05-04 19:56 46.23056 6.10128 1396 ft 15 kts 46°
2026-05-04 19:56 46.23070 6.10168 1398 ft 4 kts 82°
2026-05-04 19:56 46.23071 6.10243 1392 ft 14 kts 90°
2026-05-04 19:57 46.23071 6.10265 1392 ft 0 kts 90°